TimeCDT,TemperatureF,Dew PointF,Humidity,Sea Level PressureIn,VisibilityMPH,Wind Direction,Wind SpeedMPH,Gust SpeedMPH,PrecipitationIn,Events,Conditions,WindDirDegrees,DateUTC
12:52 AM,63.0,60.1,90,29.91,10.0,South,4.6,-,N/A,,Clear,180,2012-09-17 05:52:00
1:52 AM,61.0,59.0,93,29.91,10.0,WSW,3.5,-,N/A,,Clear,250,2012-09-17 06:52:00
2:52 AM,60.1,59.0,96,29.91,10.0,SSW,3.5,-,N/A,,Clear,210,2012-09-17 07:52:00
3:52 AM,57.0,55.9,96,29.89,6.0,Calm,Calm,-,N/A,,Clear,0,2012-09-17 08:52:00
4:12 AM,55.4,55.4,100,29.90,2.0,Calm,Calm,-,N/A,,Clear,0,2012-09-17 09:12:00
4:19 AM,53.6,53.6,100,29.91,1.5,Calm,Calm,-,N/A,,Clear,0,2012-09-17 09:19:00
4:24 AM,53.6,53.6,100,29.90,3.0,Calm,Calm,-,N/A,,Clear,0,2012-09-17 09:24:00
4:52 AM,54.0,54.0,100,29.90,4.0,Calm,Calm,-,N/A,,Clear,0,2012-09-17 09:52:00
5:02 AM,53.6,53.6,100,29.92,1.8,Calm,Calm,-,N/A,,Clear,0,2012-09-17 10:02:00
5:13 AM,55.4,55.4,100,29.92,3.0,Calm,Calm,-,N/A,,Clear,0,2012-09-17 10:13:00
5:52 AM,55.0,54.0,96,29.91,6.0,Calm,Calm,-,0.01,,Scattered Clouds,0,2012-09-17 10:52:00
6:01 AM,55.4,53.6,94,29.92,2.5,Calm,Calm,-,N/A,,Mostly Cloudy,0,2012-09-17 11:01:00
6:06 AM,55.4,53.6,94,29.92,0.8,Calm,Calm,-,N/A,,Mist,0,2012-09-17 11:06:00
6:15 AM,53.6,53.6,100,29.92,0.2,Calm,Calm,-,N/A,Fog,Fog,0,2012-09-17 11:15:00
6:28 AM,53.6,53.6,100,29.92,0.5,Calm,Calm,-,N/A,Fog,Fog,0,2012-09-17 11:28:00
6:36 AM,53.6,53.6,100,29.92,0.2,Calm,Calm,-,N/A,Fog,Fog,0,2012-09-17 11:36:00
6:44 AM,55.4,53.6,94,29.92,0.8,Calm,Calm,-,N/A,,Mist,0,2012-09-17 11:44:00
6:52 AM,55.4,55.4,100,29.91,0.5,Calm,Calm,-,N/A,Fog,Fog,0,2012-09-17 11:52:00
7:04 AM,53.6,53.6,100,29.91,1.0,Calm,Calm,-,N/A,,Mist,0,2012-09-17 12:04:00
7:10 AM,53.6,53.6,100,29.91,2.0,Calm,Calm,-,N/A,,Partly Cloudy,0,2012-09-17 12:10:00
7:26 AM,53.6,53.6,100,29.91,4.0,Calm,Calm,-,N/A,,Clear,0,2012-09-17 12:26:00
7:52 AM,55.0,55.0,100,29.90,6.0,Calm,Calm,-,N/A,,Clear,0,2012-09-17 12:52:00
8:52 AM,61.0,60.1,97,29.89,8.0,West,3.5,-,N/A,,Clear,260,2012-09-17 13:52:00
9:52 AM,66.9,62.1,84,29.89,10.0,SSW,5.8,-,N/A,,Clear,210,2012-09-17 14:52:00
10:49 AM,69.8,60.8,73,29.92,10.0,West,6.9,-,N/A,,Mostly Cloudy,270,2012-09-17 15:49:00
10:52 AM,70.0,61.0,73,29.91,10.0,Variable,5.8,-,N/A,,Mostly Cloudy,0,2012-09-17 15:52:00
10:59 AM,69.8,60.8,73,29.92,10.0,Variable,4.6,-,N/A,,Scattered Clouds,0,2012-09-17 15:59:00
11:12 AM,69.8,60.8,73,29.92,10.0,Calm,Calm,-,N/A,,Mostly Cloudy,0,2012-09-17 16:12:00
11:52 AM,71.1,61.0,70,29.91,10.0,NW,5.8,-,N/A,,Overcast,310,2012-09-17 16:52:00
12:52 PM,72.0,62.1,71,29.91,10.0,NNW,5.8,-,N/A,,Overcast,340,2012-09-17 17:52:00
1:52 PM,68.0,61.0,78,29.93,10.0,North,12.7,18.4,N/A,,Overcast,360,2012-09-17 18:52:00
2:08 PM,66.2,60.8,83,29.94,10.0,North,18.4,28.8,N/A,,Overcast,360,2012-09-17 19:08:00
2:15 PM,62.6,55.4,77,29.94,10.0,North,15.0,28.8,N/A,,Overcast,10,2012-09-17 19:15:00
2:44 PM,62.6,55.4,77,29.93,10.0,NE,17.3,-,N/A,,Overcast,40,2012-09-17 19:44:00
2:52 PM,64.0,57.0,78,29.92,10.0,NNE,13.8,21.9,N/A,,Overcast,30,2012-09-17 19:52:00
3:13 PM,66.2,57.2,73,29.93,10.0,NNE,13.8,-,N/A,,Mostly Cloudy,30,2012-09-17 20:13:00
3:52 PM,64.0,55.9,75,29.93,10.0,NNE,12.7,19.6,N/A,,Overcast,20,2012-09-17 20:52:00
4:04 PM,64.4,55.4,73,29.95,10.0,NNE,11.5,21.9,N/A,,Overcast,20,2012-09-17 21:04:00
4:52 PM,62.6,53.6,72,29.96,10.0,NNE,16.1,24.2,N/A,,Overcast,30,2012-09-17 21:52:00
5:04 PM,60.8,53.6,77,29.96,10.0,NNE,18.4,27.6,N/A,,Overcast,20,2012-09-17 22:04:00
5:52 PM,61.0,53.1,75,29.97,10.0,NNE,12.7,-,N/A,,Mostly Cloudy,30,2012-09-17 22:52:00
6:52 PM,63.0,53.1,70,29.99,10.0,NNE,8.1,-,N/A,,Mostly Cloudy,30,2012-09-17 23:52:00
7:52 PM,60.1,52.0,75,30.01,10.0,North,3.5,-,N/A,,Partly Cloudy,350,2012-09-18 00:52:00
8:52 PM,57.0,48.9,74,30.04,10.0,North,3.5,-,N/A,,Clear,360,2012-09-18 01:52:00
9:52 PM,55.0,48.9,80,30.05,10.0,Calm,Calm,-,N/A,,Clear,0,2012-09-18 02:52:00
10:52 PM,52.0,48.0,86,30.06,10.0,Calm,Calm,-,N/A,,Clear,0,2012-09-18 03:52:00
11:52 PM,48.9,46.9,93,30.06,10.0,Calm,Calm,-,N/A,,Clear,0,2012-09-18 04:52:00